Weather History for Punta Gorda, FL

Change the Weather History Date:

Saturday, July 20, 2013

  Actual Average Record
Temperature  
Mean Temperature 82 °F -  
Max Temperature 91 °F 89 °F 96 °F (2007)
Min Temperature 73 °F 71 °F 71 °F (1998)
Cooling Degree Days 17    
Growing Degree Days 32 (Base 50)    
Moisture  
Dew Point 74 °F    
Average Humidity 84    
Maximum Humidity 97    
Minimum Humidity 58    
Precipitation  
Precipitation 0.38 in - - ()
Sea Level Pressure  
Sea Level Pressure 30.10 in    
Wind  
Wind Speed 5 mph (ESE)    
Max Wind Speed 34 mph    
Max Gust Speed 46 mph    
Visibility 10 miles    
Events Rain    
Averages and records for this station are not official NWS values.
T = Trace of Precipitation, MM = Missing Value Source: NWS Daily Summary

Daily Weather History Graph

Daily Weather History Graph

Search for Another Location

Airport:

Trip Planner

Search our weather history database for the weather conditions in past years. The results will help you decide how hot, cold, wet, or windy it might be!

Date:

Astronomy

Jul. 20, 2013 Rise Set
Actual Time 6:46 AM EDT 8:22 PM EDT
Civil Twilight 6:20 AM EDT 8:47 PM EDT
Nautical Twilight 5:49 AM EDT 9:18 PM EDT
Astronomical Twilight 5:17 AM EDT 9:50 PM EDT
Moon 6:25 PM EDT (7/20) 4:24 AM EDT (7/20)
Length of Visible Light 14h 27m
Length of Day
13h 35m
Waxing Gibbous, 93% of the Moon is Illuminated
Jul 20
Waxing Gibbous
Jul 22
Full
Jul 29
Last Quarter
Aug 6
New
Aug 14
First Quarter

Hourly Weather History & Observations

Time (EDT) Temp. Heat Index Dew Point Humidity Pressure Visibility Wind Dir Wind Speed Gust Speed Precip Events Conditions
12:53 AM 75.0 °F - 72.0 °F 90% 30.13 in 10.0 mi Calm Calm - N/A   Clear
1:53 AM 73.9 °F - 73.0 °F 97% 30.11 in 10.0 mi Calm Calm - N/A   Clear
2:53 AM 73.9 °F - 72.0 °F 93% 30.09 in 10.0 mi NE 4.6 mph - N/A   Clear
3:53 AM 73.9 °F - 73.0 °F 97% 30.06 in 10.0 mi East 5.8 mph - N/A   Clear
4:53 AM 73.9 °F - 73.0 °F 97% 30.07 in 10.0 mi Calm Calm - N/A   Clear
5:53 AM 73.9 °F - 73.0 °F 97% 30.08 in 10.0 mi East 4.6 mph - N/A   Clear
6:53 AM 75.0 °F - 73.9 °F 96% 30.09 in 10.0 mi ENE 3.5 mph - N/A   Clear
7:53 AM 75.9 °F - 75.0 °F 97% 30.10 in 10.0 mi East 3.5 mph - N/A   Clear
8:53 AM 81.0 °F 87.9 °F 77.0 °F 88% 30.11 in 10.0 mi ESE 9.2 mph - N/A   Partly Cloudy
9:53 AM 82.9 °F 91.8 °F 77.0 °F 82% 30.13 in 10.0 mi SE 8.1 mph - N/A   Mostly Cloudy
10:04 AM 84.2 °F 94.1 °F 77.0 °F 79% 30.12 in 10.0 mi ESE 8.1 mph - N/A   Scattered Clouds
10:53 AM 84.9 °F 95.3 °F 77.0 °F 77% 30.13 in 10.0 mi ESE 5.8 mph - N/A   Mostly Cloudy
11:53 AM 87.1 °F 97.3 °F 75.9 °F 69% 30.12 in 10.0 mi Variable 6.9 mph - 0.01 in   Mostly Cloudy
12:10 PM 86.0 °F 95.1 °F 75.2 °F 70% 30.12 in 10.0 mi South 6.9 mph - N/A   Mostly Cloudy
12:26 PM 89.6 °F 99.8 °F 75.2 °F 62% 30.12 in 10.0 mi Variable 6.9 mph - N/A   Scattered Clouds
12:53 PM 90.0 °F 99.0 °F 73.9 °F 59% 30.12 in 10.0 mi SSE 8.1 mph - N/A   Clear
1:53 PM 90.0 °F 99.0 °F 73.9 °F 59% 30.08 in 10.0 mi SSW 5.8 mph - N/A   Scattered Clouds
2:53 PM 91.9 °F 103.2 °F 75.0 °F 58% 30.06 in 10.0 mi WSW 6.9 mph - N/A   Partly Cloudy
3:53 PM 78.1 °F - 71.1 °F 79% 30.08 in 10.0 mi ESE 34.5 mph 46.0 mph N/A   Mostly Cloudy
4:10 PM 75.2 °F - 71.6 °F 89% 30.10 in 1.8 mi SE 19.6 mph 26.5 mph 0.12 in Rain Heavy Rain
4:24 PM 75.2 °F - 71.6 °F 89% 30.09 in 3.0 mi SE 17.3 mph - 0.33 in Rain Light Rain
4:53 PM 75.9 °F - 72.0 °F 87% 30.06 in 10.0 mi SE 10.4 mph - 0.36 in   Mostly Cloudy
5:53 PM 75.9 °F - 73.0 °F 91% 30.06 in 10.0 mi Calm Calm - 0.01 in   Clear
6:53 PM 77.0 °F - 73.0 °F 88% 30.07 in 10.0 mi Calm Calm - N/A   Clear
7:53 PM 75.9 °F - 73.0 °F 91% 30.07 in 10.0 mi East 3.5 mph - N/A   Clear
8:53 PM 75.9 °F - 73.0 °F 91% 30.08 in 10.0 mi East 4.6 mph - N/A   Clear
9:53 PM 75.9 °F - 73.0 °F 91% 30.09 in 10.0 mi ESE 4.6 mph - N/A   Clear
10:53 PM 75.9 °F - 72.0 °F 87% 30.10 in 10.0 mi SE 4.6 mph - N/A   Clear
11:53 PM 75.0 °F - 73.0 °F 94% 30.12 in 10.0 mi Calm Calm - N/A   Clear